SPZOS EPGD-EPMB

Flight info

Callsign SPZOS
Flight time 0h 23m
Altitude 1500
Route EPGD/11 DCT EPGDX DCT EPPRR DCT EPMB
Aircraft P208/L-SDFGRWY/S

Departure

Time 2026-04-20 18:55
Airport Gdańsk Lech Wałęsa Airport (EPGD)

Arrival

Time 2026-04-20 19:18
Airport Malbork Królewo Air Base (EPMB)
Time Latitude Longitude Altitude Speed Heading
2026-04-20 18:37 54.37704 18.47749 477 ft 0 kts 320°
2026-04-20 18:48 54.37707 18.47742 473 ft 0 kts 278°
2026-04-20 18:48 54.37707 18.47741 473 ft 0 kts 252°
2026-04-20 18:48 54.37698 18.47726 476 ft 6 kts 218°
2026-04-20 18:48 54.37681 18.47660 476 ft 5 kts 274°
2026-04-20 18:49 54.37720 18.47508 475 ft 19 kts 292°
2026-04-20 18:49 54.37771 18.47286 473 ft 21 kts 293°
2026-04-20 18:49 54.37829 18.47052 470 ft 22 kts 293°
2026-04-20 18:49 54.37892 18.46803 468 ft 23 kts 293°
2026-04-20 18:50 54.37921 18.46687 467 ft 0 kts 291°
2026-04-20 18:50 54.37939 18.46608 466 ft 19 kts 293°
2026-04-20 18:50 54.37998 18.46370 464 ft 22 kts 294°
2026-04-20 18:50 54.38041 18.46202 463 ft 23 kts 292°
2026-04-20 18:51 54.38104 18.45947 460 ft 24 kts 293°
2026-04-20 18:51 54.38148 18.45690 458 ft 16 kts 252°
2026-04-20 18:51 54.38100 18.45625 457 ft 0 kts 197°
2026-04-20 18:52 54.38093 18.45621 457 ft 6 kts 198°
2026-04-20 18:52 54.37990 18.45595 458 ft 17 kts 130°
2026-04-20 18:53 54.37989 18.45695 460 ft 0 kts 108°
2026-04-20 18:53 54.37950 18.45853 461 ft 39 kts 114°
2026-04-20 18:53 54.37784 18.46476 517 ft 67 kts 105°
2026-04-20 18:54 54.37531 18.47150 687 ft 73 kts 146°
2026-04-20 18:54 54.36978 18.46992 779 ft 88 kts 206°
2026-04-20 18:54 54.36539 18.46274 900 ft 91 kts 230°
2026-04-20 18:54 54.36034 18.45412 935 ft 108 kts 227°
2026-04-20 18:55 54.35545 18.44622 1300 ft 90 kts 213°
2026-04-20 18:55 54.34947 18.44477 1456 ft 83 kts 149°
2026-04-20 18:55 54.34466 18.45046 1529 ft 90 kts 130°
2026-04-20 18:55 54.34007 18.45697 1707 ft 86 kts 123°
2026-04-20 18:56 54.33571 18.46460 1816 ft 91 kts 121°
2026-04-20 18:56 54.33144 18.47240 1964 ft 87 kts 118°
2026-04-20 18:56 54.32755 18.47985 2102 ft 83 kts 116°
2026-04-20 18:56 54.32372 18.48900 1855 ft 103 kts 111°
2026-04-20 18:57 54.32001 18.49962 1635 ft 106 kts 110°
2026-04-20 18:57 54.31633 18.51017 1497 ft 102 kts 111°
2026-04-20 18:57 54.31271 18.52018 1486 ft 91 kts 111°
2026-04-20 18:57 54.30926 18.52855 1590 ft 82 kts 111°
2026-04-20 18:58 54.30616 18.53663 1606 ft 86 kts 109°
2026-04-20 18:58 54.30246 18.54528 1567 ft 94 kts 118°
2026-04-20 18:58 54.29796 18.55280 1641 ft 90 kts 124°
2026-04-20 18:58 54.29323 18.55965 1744 ft 86 kts 125°
2026-04-20 18:59 54.28863 18.56689 1727 ft 91 kts 123°
2026-04-20 18:59 54.28391 18.57471 1679 ft 99 kts 123°
2026-04-20 18:59 54.27904 18.58309 1650 ft 101 kts 121°
2026-04-20 18:59 54.27427 18.59201 1677 ft 101 kts 119°
2026-04-20 19:00 54.26975 18.60059 1647 ft 97 kts 119°
2026-04-20 19:00 54.26526 18.60910 1611 ft 96 kts 118°
2026-04-20 19:00 54.26093 18.61824 1509 ft 98 kts 117°
2026-04-20 19:00 54.25690 18.62710 1548 ft 90 kts 116°
2026-04-20 19:01 54.25301 18.63502 1646 ft 85 kts 116°
2026-04-20 19:01 54.24979 18.64185 1846 ft 68 kts 106°
2026-04-20 19:01 54.24754 18.65008 1741 ft 86 kts 99°
2026-04-20 19:01 54.24534 18.65901 1852 ft 77 kts 99°
2026-04-20 19:02 54.24328 18.66780 1818 ft 83 kts 96°
2026-04-20 19:02 54.24063 18.67758 1698 ft 93 kts 104°
2026-04-20 19:02 54.23789 18.68716 1615 ft 96 kts 104°
2026-04-20 19:02 54.23482 18.69841 1368 ft 100 kts 107°
2026-04-20 19:03 54.23189 18.70784 1494 ft 84 kts 107°
2026-04-20 19:03 54.22908 18.71624 1582 ft 79 kts 110°
2026-04-20 19:03 54.22578 18.72408 1608 ft 83 kts 112°
2026-04-20 19:03 54.22252 18.73226 1628 ft 85 kts 111°
2026-04-20 19:04 54.21939 18.74139 1540 ft 92 kts 107°
2026-04-20 19:04 54.21655 18.75024 1664 ft 81 kts 105°
2026-04-20 19:04 54.21359 18.75824 1695 ft 85 kts 112°
2026-04-20 19:04 54.21012 18.76653 1716 ft 86 kts 113°
2026-04-20 19:05 54.20650 18.77472 1780 ft 83 kts 114°
2026-04-20 19:05 54.20300 18.78255 1836 ft 83 kts 115°
2026-04-20 19:05 54.19965 18.78992 1928 ft 80 kts 112°
2026-04-20 19:05 54.19597 18.79820 1834 ft 92 kts 114°
2026-04-20 19:06 54.19218 18.80653 1905 ft 86 kts 114°
2026-04-20 19:06 54.18847 18.81481 1870 ft 90 kts 113°
2026-04-20 19:06 54.18466 18.82335 1838 ft 92 kts 114°
2026-04-20 19:06 54.18060 18.83241 1777 ft 93 kts 118°
2026-04-20 19:07 54.17589 18.83929 1882 ft 91 kts 130°
2026-04-20 19:07 54.17054 18.84618 1824 ft 104 kts 129°
2026-04-20 19:07 54.16477 18.85419 1783 ft 109 kts 129°
2026-04-20 19:07 54.15926 18.86171 1744 ft 96 kts 130°
2026-04-20 19:08 54.15405 18.86841 1726 ft 92 kts 131°
2026-04-20 19:08 54.14389 18.88165 1723 ft 89 kts 128°
2026-04-20 19:08 54.13918 18.88854 1769 ft 87 kts 127°
2026-04-20 19:09 54.13465 18.89502 1797 ft 89 kts 126°
2026-04-20 19:09 54.13007 18.90187 1834 ft 88 kts 126°
2026-04-20 19:09 54.12547 18.90864 1798 ft 82 kts 126°
2026-04-20 19:09 54.12101 18.91487 1824 ft 87 kts 128°
2026-04-20 19:10 54.11625 18.92147 1851 ft 88 kts 133°
2026-04-20 19:10 54.11069 18.92631 1900 ft 91 kts 141°
2026-04-20 19:10 54.10508 18.93130 1928 ft 90 kts 135°
2026-04-20 19:10 54.09974 18.93684 1949 ft 91 kts 136°
2026-04-20 19:11 54.09426 18.94212 1987 ft 90 kts 135°
2026-04-20 19:11 54.08887 18.94778 1951 ft 94 kts 133°
2026-04-20 19:11 54.08351 18.95377 1964 ft 89 kts 132°
2026-04-20 19:11 54.07827 18.95976 1870 ft 88 kts 132°
2026-04-20 19:12 54.07323 18.96548 1765 ft 90 kts 131°
2026-04-20 19:12 54.06811 18.97189 1776 ft 90 kts 129°
2026-04-20 19:12 54.06323 18.97846 1780 ft 90 kts 127°
2026-04-20 19:12 54.05836 18.98522 1754 ft 88 kts 129°
2026-04-20 19:13 54.05321 18.99074 1793 ft 89 kts 135°
2026-04-20 19:13 54.04795 18.99579 1798 ft 92 kts 138°
2026-04-20 19:13 54.04235 19.00121 1793 ft 94 kts 135°
2026-04-20 19:13 54.03639 19.00539 1855 ft 91 kts 148°
2026-04-20 19:14 54.03070 19.00859 1822 ft 84 kts 147°
2026-04-20 19:14 54.02545 19.01114 1832 ft 74 kts 150°
2026-04-20 19:14 54.02021 19.01270 1707 ft 79 kts 155°
2026-04-20 19:14 54.01671 19.01709 1611 ft 57 kts 98°
2026-04-20 19:15 54.01516 19.02320 1528 ft 56 kts 99°
2026-04-20 19:15 54.01455 19.02955 1444 ft 55 kts 84°
2026-04-20 19:15 54.01453 19.03602 1417 ft 54 kts 76°
2026-04-20 19:15 54.01516 19.04239 1326 ft 61 kts 71°
2026-04-20 19:16 54.01594 19.04887 1278 ft 52 kts 70°
2026-04-20 19:16 54.01660 19.05494 1137 ft 54 kts 70°
2026-04-20 19:16 54.01730 19.06135 1028 ft 56 kts 71°
2026-04-20 19:16 54.01808 19.06791 921 ft 58 kts 71°
2026-04-20 19:17 54.01912 19.07485 807 ft 62 kts 69°
2026-04-20 19:17 54.02016 19.08188 664 ft 62 kts 70°
2026-04-20 19:17 54.02116 19.08889 522 ft 60 kts 70°
2026-04-20 19:17 54.02207 19.09605 354 ft 65 kts 72°
2026-04-20 19:18 54.02289 19.10365 231 ft 63 kts 68°
2026-04-20 19:18 54.02367 19.11067 125 ft 58 kts 72°
2026-04-20 19:18 54.02452 19.11733 49 ft 57 kts 73°
2026-04-20 19:18 54.02510 19.12308 23 ft 40 kts 69°
2026-04-20 19:19 54.02571 19.12722 23 ft 33 kts 76°
2026-04-20 19:19 54.02607 19.13087 23 ft 31 kts 79°
2026-04-20 19:19 54.02691 19.13313 22 ft 12 kts 308°
2026-04-20 19:19 54.02707 19.13286 22 ft 0 kts 353°
2026-04-20 19:20 54.02749 19.13277 22 ft 12 kts 348°
2026-04-20 19:20 54.02812 19.13203 22 ft 13 kts 315°
2026-04-20 19:20 54.02886 19.13078 22 ft 15 kts 314°
2026-04-20 19:20 54.02908 19.12954 21 ft 8 kts 252°
2026-04-20 19:21 54.02897 19.12846 22 ft 12 kts 263°
2026-04-20 19:21 54.02883 19.12707 22 ft 0 kts 278°
2026-04-20 19:21 54.02889 19.12682 22 ft 7 kts 309°
2026-04-20 19:21 54.02923 19.12656 22 ft 1 kts 294°
2026-04-20 19:22 54.02915 19.12576 22 ft 7 kts 277°
2026-04-20 19:22 54.02906 19.12509 22 ft 4 kts 218°
2026-04-20 19:22 54.02897 19.12506 22 ft 0 kts 170°